Weather History for Rockwall, TX

Change the Weather History Date:

Thursday, October 4, 2012

  Actual Average (KDFW) Record (KDFW)
Temperature  
Mean Temperature 75 °F 71 °F  
Max Temperature 87 °F 82 °F 96 °F (1983)
Min Temperature 63 °F 61 °F 45 °F (1987)
Degree Days  
Heating Degree Days 0 1  
Month to date heating degree days 4  
Since 1 July heating degree days 10  
Cooling Degree Days 10 7  
Month to date cooling degree days 30  
Year to date cooling degree days 2607  
Growing Degree Days 25 (Base 50)    
Moisture  
Dew Point 62 °F    
Average Humidity 67    
Maximum Humidity 89    
Minimum Humidity 49    
Precipitation  
Precipitation 0.00 in 0.10 in 2.58 in (1959)
Month to date precipitation 0.38  
Year to date precipitation 27.04  
Snow  
Snow - 0.00 in 0.00 in ()
Month to date snowfall 0.0  
Since 1 July snowfall 0.0  
Since 1 September snowfall 0.0  
Snow Depth -    
Sea Level Pressure  
Sea Level Pressure 30.07 in    
Wind  
Wind Speed 7 mph ()    
Max Wind Speed 16 mph    
Max Gust Speed 21 mph    
Visibility 10.0 miles    
Events      
T = Trace of Precipitation, MM = Missing Value Source: Averaged Metar Reports

Daily Weather History Graph

Daily Weather History Graph

Search for Another Location

Airport:

Trip Planner

Search our weather history database for the weather conditions in past years. The results will help you decide how hot, cold, wet, or windy it might be!

Date:

Astronomy

Oct. 04, 2012 Rise Set
Actual Time 7:22 AM CDT 7:05 PM CDT
Civil Twilight 6:57 AM CDT 7:30 PM CDT
Nautical Twilight 6:29 AM CDT 7:58 PM CDT
Astronomical Twilight 6:00 AM CDT 8:27 PM CDT
Moon 9:56 PM CDT (10/4) 11:26 AM CDT (10/4)
Length of Visible Light 12h 32m
Length of Day
11h 43m
Waning Gibbous, 82% of the Moon is Illuminated
Oct 4
Waning Gibbous
Oct 8
Last Quarter
Oct 15
New
Oct 21
First Quarter
Oct 29
Full

Hourly Weather History & Observations

Time (CDT) Temp. Heat Index Dew Point Humidity Pressure Visibility Wind Dir Wind Speed Gust Speed Precip Events Conditions
12:15 AM 66.6 °F - 54.0 °F 64% 30.02 in 10.0 mi SE 6.9 mph - N/A   Clear
12:35 AM 66.4 °F - 53.8 °F 64% 30.02 in 10.0 mi SSE 6.9 mph - N/A   Clear
12:55 AM 66.2 °F - 53.8 °F 64% 30.03 in 10.0 mi SE 6.9 mph - N/A   Clear
1:15 AM 65.5 °F - 53.8 °F 66% 30.03 in 10.0 mi SE 5.8 mph - N/A   Clear
1:35 AM 65.3 °F - 54.0 °F 67% 30.03 in 10.0 mi SE 4.6 mph - N/A   Clear
1:55 AM 65.3 °F - 54.0 °F 67% 30.04 in 10.0 mi SE 6.9 mph - N/A   Clear
2:15 AM 65.3 °F - 54.5 °F 68% 30.04 in 10.0 mi SSE 5.8 mph - N/A   Clear
2:35 AM 65.3 °F - 54.9 °F 69% 30.04 in 10.0 mi SSE 6.9 mph - N/A   Clear
2:55 AM 64.9 °F - 55.6 °F 72% 30.04 in 10.0 mi SSE 5.8 mph - N/A   Clear
3:15 AM 64.6 °F - 55.9 °F 74% 30.04 in 10.0 mi SSE 4.6 mph - N/A   Clear
3:35 AM 64.4 °F - 56.5 °F 75% 30.04 in 10.0 mi SSE 5.8 mph - N/A   Clear
3:55 AM 64.4 °F - 57.2 °F 77% 30.04 in 10.0 mi South 5.8 mph - N/A   Clear
4:15 AM 64.4 °F - 57.6 °F 78% 30.05 in 10.0 mi South 4.6 mph - N/A   Clear
4:35 AM 64.4 °F - 58.1 °F 80% 30.05 in 10.0 mi South 4.6 mph - N/A   Clear
4:55 AM 64.4 °F - 58.6 °F 82% 30.06 in 10.0 mi South 5.8 mph - N/A   Clear
5:15 AM 63.7 °F - 58.8 °F 84% 30.06 in 10.0 mi South 5.8 mph - N/A   Clear
5:35 AM 63.7 °F - 59.2 °F 85% 30.06 in 10.0 mi South 6.9 mph - N/A   Clear
5:55 AM 64.0 °F - 59.5 °F 85% 30.07 in 10.0 mi South 6.9 mph - N/A   Clear
6:15 AM 64.4 °F - 59.9 °F 85% 30.07 in 10.0 mi South 6.9 mph - N/A   Clear
6:35 AM 64.4 °F - 60.1 °F 86% 30.07 in 10.0 mi South 5.8 mph - N/A   Clear
6:55 AM 64.4 °F - 60.3 °F 86% 30.07 in 10.0 mi South 8.1 mph - N/A   Clear
7:15 AM 64.4 °F - 60.4 °F 87% 30.08 in 10.0 mi South 8.1 mph - N/A   Clear
7:35 AM 64.2 °F - 60.8 °F 89% 30.09 in 10.0 mi SSE 6.9 mph - N/A   Clear
7:55 AM 64.4 °F - 61.0 °F 89% 30.09 in 10.0 mi SSE 5.8 mph - N/A   Clear
8:15 AM 65.7 °F - 61.7 °F 87% 30.10 in 10.0 mi SSE 6.9 mph - N/A   Scattered Clouds
8:35 AM 67.3 °F - 62.1 °F 83% 30.10 in 10.0 mi SSE 9.2 mph - N/A   Scattered Clouds
9:15 AM 71.1 °F - 62.4 °F 74% 30.11 in 10.0 mi SSE 11.5 mph 17.3 mph N/A   Clear
9:35 AM 72.7 °F - 62.6 °F 71% 30.11 in 10.0 mi SSE 11.5 mph 18.4 mph N/A   Clear
9:55 AM 74.7 °F - 62.8 °F 66% 30.11 in 10.0 mi SSE 9.2 mph - N/A   Clear
10:15 AM 75.9 °F - 63.0 °F 64% 30.11 in 10.0 mi South 9.2 mph 17.3 mph N/A   Clear
10:35 AM 77.7 °F - 64.0 °F 63% 30.11 in 10.0 mi SSE 13.8 mph 18.4 mph N/A   Clear
10:55 AM 78.4 °F - 64.6 °F 62% 30.11 in 10.0 mi South 12.7 mph 18.4 mph N/A   Scattered Clouds
11:15 AM 78.8 °F - 65.5 °F 64% 30.12 in 10.0 mi SSE 10.4 mph 17.3 mph N/A   Mostly Cloudy
11:35 AM 79.2 °F - 65.8 °F 64% 30.12 in 10.0 mi SSE 11.5 mph - N/A   Overcast
11:55 AM 80.2 °F 82.5 °F 66.6 °F 63% 30.12 in 10.0 mi South 10.4 mph 16.1 mph N/A   Overcast
12:15 PM 80.8 °F 83.1 °F 66.6 °F 62% 30.12 in 10.0 mi South 10.4 mph 16.1 mph N/A   Overcast
12:35 PM 81.0 °F 83.3 °F 66.7 °F 62% 30.12 in 10.0 mi South 10.4 mph - N/A   Overcast
12:55 PM 82.6 °F 85.1 °F 66.7 °F 59% 30.12 in 10.0 mi SSW 9.2 mph 20.7 mph N/A   Mostly Cloudy
1:15 PM 82.8 °F 85.3 °F 67.1 °F 59% 30.12 in 10.0 mi SSE 6.9 mph - N/A   Mostly Cloudy
1:35 PM 83.3 °F 85.7 °F 66.7 °F 57% 30.11 in 10.0 mi South 12.7 mph - N/A   Mostly Cloudy
2:15 PM 85.1 °F 87.7 °F 66.7 °F 54% 30.09 in 10.0 mi South 12.7 mph 18.4 mph N/A   Scattered Clouds
2:35 PM 85.1 °F 87.7 °F 66.6 °F 54% 30.08 in 10.0 mi SSE 9.2 mph 16.1 mph N/A   Mostly Cloudy
2:55 PM 85.6 °F 88.5 °F 67.1 °F 54% 30.07 in 10.0 mi South 13.8 mph 17.3 mph N/A   Overcast
3:15 PM 86.0 °F 88.2 °F 66.2 °F 51% 30.07 in 10.0 mi SSW 16.1 mph 19.6 mph N/A   Mostly Cloudy
3:35 PM 87.1 °F 89.2 °F 66.0 °F 49% 30.06 in 10.0 mi South 13.8 mph 19.6 mph N/A   Mostly Cloudy
3:55 PM 86.4 °F 88.4 °F 65.8 °F 50% 30.06 in 10.0 mi South 9.2 mph 16.1 mph N/A   Overcast
4:15 PM 86.2 °F 88.2 °F 65.5 °F 50% 30.06 in 10.0 mi SSW 12.7 mph 19.6 mph N/A   Scattered Clouds
4:35 PM 84.7 °F 86.6 °F 65.3 °F 52% 30.05 in 10.0 mi South 12.7 mph 18.4 mph N/A   Clear
5:15 PM 84.2 °F 86.1 °F 65.3 °F 53% 30.05 in 10.0 mi South 12.7 mph 19.6 mph N/A   Mostly Cloudy
5:35 PM 83.5 °F 85.3 °F 65.3 °F 54% 30.05 in 10.0 mi South 8.1 mph - N/A   Overcast
5:55 PM 83.7 °F 85.5 °F 65.5 °F 54% 30.05 in 10.0 mi South 9.2 mph - N/A   Mostly Cloudy
6:15 PM 82.6 °F 84.5 °F 65.3 °F 56% 30.05 in 10.0 mi South 10.4 mph 16.1 mph N/A   Overcast
6:35 PM 82.4 °F 84.2 °F 65.1 °F 56% 30.06 in 10.0 mi South 6.9 mph - N/A   Overcast
6:55 PM 81.5 °F 83.3 °F 65.1 °F 57% 30.06 in 10.0 mi South 8.1 mph - N/A   Overcast
7:15 PM 80.6 °F 82.4 °F 65.3 °F 59% 30.06 in 10.0 mi SSE 3.5 mph - N/A   Overcast
7:55 PM 79.7 °F - 65.3 °F 61% 30.06 in 10.0 mi SSE 5.8 mph - N/A   Overcast
8:15 PM 78.8 °F - 65.5 °F 64% 30.06 in 10.0 mi SE 4.6 mph - N/A   Overcast
8:35 PM 77.9 °F - 65.5 °F 65% 30.07 in 10.0 mi SE 4.6 mph - N/A   Overcast
9:15 PM 77.9 °F - 63.7 °F 61% 30.07 in 10.0 mi SE 6.9 mph - N/A   Overcast
9:35 PM 77.5 °F - 63.5 °F 62% 30.07 in 10.0 mi SE 8.1 mph - N/A   Overcast
9:55 PM 77.0 °F - 63.1 °F 62% 30.07 in 10.0 mi SE 6.9 mph - N/A   Overcast
10:15 PM 77.0 °F - 63.1 °F 62% 30.07 in 10.0 mi SSE 6.9 mph - N/A   Overcast
10:35 PM 76.8 °F - 63.0 °F 62% 30.07 in 10.0 mi SE 8.1 mph - N/A   Overcast
10:55 PM 76.5 °F - 62.8 °F 62% 30.07 in 10.0 mi SSE 8.1 mph - N/A   Overcast
11:15 PM 76.3 °F - 62.8 °F 63% 30.07 in 10.0 mi SSE 6.9 mph - N/A   Mostly Cloudy
11:35 PM 76.1 °F - 62.6 °F 63% 30.07 in 10.0 mi SSE 9.2 mph - N/A   Scattered Clouds
11:55 PM 76.3 °F - 62.8 °F 63% 30.07 in 10.0 mi South 8.1 mph - N/A   Mostly Cloudy